Location: ????
(30.3032°N, 31.1831°E)
Time: 18:33:18
(UTC+00:00)

Daily predictions for brighter satellites

Satellite Brightness Start Highest point End
(mag) Time Altitude Azimuth Time Altitude Azimuth Time Altitude Azimuth
FALCON 9 R/B 3.4 16:15:22 10° WSW 16:20:20 84° NNW 16:38:50 10° ENE
H-2A R/B 2.0 16:33:57 10° SSE 16:39:08 76° ENE 16:44:12 10° N
Cosmos 1908 4.0 16:36:23 10° SSE 16:39:47 30° E 16:43:11 10° NNE
Atlas Centaur 2 3.2 16:33:18 10° WSW 16:41:44 79° SSE 16:50:06 10° E
ATLAS 5 CENTAUR R/B 2.4 16:39:44 10° SSE 16:42:45 22° ESE 16:45:51 10° ENE
ATLAS CENTAUR R/B 4.3 16:42:37 10° WNW 16:45:47 20° WSW 16:49:03 10° SSW
IRS-1C Rocket 4.1 16:41:15 10° SSE 16:46:32 85° ENE 16:51:49 10° NNW
Meteor 1-16 Rocket 4.3 16:42:26 10° SSE 16:47:31 50° E 16:52:40 10° NNE
SAR-Lupe-1 4.0 16:45:30 10° NNE 16:49:02 60° E 16:52:33 10° S
Cosmos 1953 2.3 16:46:46 10° S 16:50:46 64° E 16:54:46 10° NNE
ATLAS 2AS CENTAUR R/B 4.4 16:49:49 10° SE 16:52:31 12° ESE 16:55:13 10° E
SEDSat Delta rocket 4.0 16:45:53 10° WSW 16:52:33 70° SSE 16:58:39 10° E
Cosmos 2082 Rocket 3.5 16:48:05 10° SW 16:53:31 46° WNW 16:58:58 10° N
Cosmos 1689 Rocket 2.3 16:55:16 10° N 16:58:05 67° WNW 17:00:53 10° SSW
Cosmos 2369 3.7 16:52:50 10° NNW 16:58:33 69° ENE 17:04:13 10° SSE
Cosmos 332 Rocket 4.4 16:54:18 10° NNW 16:59:05 60° WSW 17:03:48 10° S
Lacrosse 5 rocket 1.7 16:57:06 10° S 17:00:39 36° ESE 17:04:23 10° NE
Okean-O 2.7 16:59:37 10° S 17:04:03 84° W 17:08:29 10° NNW
Cosmos 2233 Rocket 4.1 16:58:06 10° S 17:04:19 84° W 17:10:38 10° N
Cosmos 1703 3.8 17:09:27 10° NNE 17:13:02 35° E 17:15:53 14° SE
Cosmos 2278 3.9 17:07:45 10° N 17:13:20 53° ENE 17:18:38 11° SE
Aurora 2 Rocket 3.7 17:10:00 10° SW 17:13:38 29° SSE 17:16:35 18° ESE
SJ-6B 4.1 17:12:40 18° E 17:13:48 21° ENE 17:16:37 10° NNE
YAOGAN 1 3.5 17:10:18 10° S 17:14:28 50° W 17:18:41 10° NNW
Cosmos 1346 Rocket 2.8 17:10:53 10° N 17:14:44 58° E 17:18:35 10° SSE
USA 186 2.6 17:16:10 21° ESE 17:17:41 32° ENE 17:20:40 10° N
BREEZE-M DEB (TANK) 4.2 17:16:50 10° WSW 17:19:05 35° NNW 17:22:38 10° NE
Meteor 1-21 Rocket 4.1 17:19:03 10° N 17:24:39 83° E 17:30:10 10° S
USA 276 4.4 17:23:43 10° N 17:25:18 13° NNE 17:25:58 12° NE
Cosmos 1315 Rocket 3.6 17:22:28 10° SSW 17:26:29 56° W 17:30:29 10° N
Lacrosse 4 Rocket 2.6 17:22:55 10° N 17:26:30 25° ENE 17:27:28 23° E
ERS-2 3.7 17:25:25 10° N 17:28:48 37° WNW 17:32:10 10° SW
Okean 1-7 Rocket 3.7 17:25:56 10° N 17:30:29 79° W 17:35:03 10° S
Cosmos 292 Rocket 4.4 17:29:37 10° N 17:34:05 36° ENE 17:35:36 29° ESE
Cosmos 1048 Rocket 4.3 17:30:20 10° SSW 17:35:31 72° WNW 17:40:48 10° NNE
SL-08 RB Rocket 4.5 17:32:51 10° S 17:37:23 54° W 17:41:57 10° NNW
USA 32 3.9 17:33:17 10° S 17:38:29 82° E 17:43:44 10° N
Cosmos 2034 Rocket 4.3 17:34:31 10° SSE 17:40:15 42° E 17:46:01 10° NNE
Cosmos 2344 4.3 17:34:05 10° SSE 17:40:27 26° ESE 17:46:19 10° ENE
Cosmos 1300 2.6 17:38:24 20° SSE 17:40:51 59° E 17:44:36 10° NNE
CZ-4C R/B 1.6 17:36:28 10° SSW 17:40:56 69° ESE 17:46:07 10° NNE
CSL-04 Rocket 4.1 17:36:13 10° S 17:41:31 62° WSW 17:46:46 10° NNW
Cosmos 1626 Rocket 3.4 17:37:56 10° N 17:42:18 74° E 17:45:05 22° SSE
Cosmos 2360 Rocket 4.2 17:40:59 10° NE 17:42:16 11° NE 17:42:16 11° NE
Resurs 01 Rocket 3.6 17:43:32 15° NE 17:43:32 15° NE 17:45:02 10° NNE
Cosmos 1420 Rocket 4.3 17:41:46 10° NNW 17:46:54 66° WSW 17:51:32 13° S
SL-16 R/B 3.0 17:43:21 10° N 17:48:19 30° ENE 17:49:05 29° E
USA 215 4.3 17:45:36 21° ENE 17:48:30 30° NE 17:53:59 10° NNW
Cosmos 1464 Rocket 3.9 17:47:05 10° S 17:53:26 85° E 17:59:46 10° N
OBJECT-B 1.1 17:56:31 58° N 17:56:31 58° N 17:59:11 10° N
Molniya-1 4.1 17:52:45 10° SSW 17:56:25 64° ESE 18:05:21 10° NNE
Cosmos 1452 Rocket 3.4 17:51:38 10° NNW 17:56:56 77° ENE 17:58:57 39° SSE
CZ-2C R/B 2.2 17:54:17 10° W 17:57:26 29° SSW 17:57:26 29° SSW
Cosmos 1980 Rocket 3.1 17:54:53 10° NNW 18:00:16 47° WSW 18:05:09 12° S
MetOp-A 4.3 17:56:14 14° S 18:00:49 69° WSW 18:06:10 10° NNW
OAO 2 Rocket 3.4 17:57:15 10° WNW 18:02:20 68° NNE 18:03:32 50° ENE
CENTAUR R/B 4.0 17:55:25 10° N 18:02:57 35° NE 18:05:31 30° E
IRS-1A Rocket 4.2 18:01:15 43° SE 18:02:59 66° ENE 18:08:30 10° N
Cosmos 1269 Rocket 4.0 18:02:36 48° SE 18:03:29 54° ESE 18:08:38 10° NNE
Lacrosse 5 4.1 18:02:45 10° WNW 18:06:22 20° WSW 18:09:59 10° SSW
Meteor 1-11 4.1 18:01:40 10° N 18:07:29 78° E 18:09:33 41° SSE
Centaur AC-119 3.7 18:06:25 10° WSW 18:07:35 23° SW 18:07:35 23° SW
Nadezhda 4 Rocket 4.1 18:05:17 10° N 18:11:27 53° E 18:12:08 50° ESE
MOS 1 4.1 18:11:26 47° SSE 18:13:08 81° ENE 18:18:47 10° N
Resurs 1-3 3.8 18:13:48 58° NNE 18:13:48 58° NNE 18:17:33 10° N
Ariane Rocket 3.0 18:25:23 63° SSW 18:26:04 74° WSW 18:31:08 10° NNW
ATLAS 5 CENTAUR R/B 4.0 18:24:20 10° W 18:27:11 19° NW 18:30:12 10° N
NOSS 3-4 (A) 3.4 18:23:26 10° SW 18:29:09 74° WNW 18:35:06 10° NNE
NOSS 3-4 (C) 3.4 18:23:28 10° SW 18:29:14 75° WNW 18:35:13 10° NNE
Atlas Centaur 2 2.9 18:23:13 10° W 18:31:51 89° N 18:33:47 58° E
Cosmos 2228 3.8 18:32:31 49° W 18:32:42 50° W 18:36:56 10° N
SEDSat Delta rocket 3.7 18:32:46 10° W 18:39:09 80° NNW 18:39:09 80° NNW
Lacrosse 5 rocket 4.0 18:37:05 10° W 18:39:53 18° NW 18:42:49 10° N
Cosmos 2322 Rocket 2.5 18:34:31 10° NNW 18:39:17 58° NNE 18:39:17 58° NNE
BREEZE M DEB (TANK) 4.1 18:25:28 10° NW 18:41:09 49° NNE 18:41:52 47° NE
NOSS 3-2 (C) 4.4 18:34:42 10° NNW 18:42:25 51° ENE 18:42:59 51° ENE
ATLAS 2AS CENTAUR R/B 2.9 18:34:36 10° SSW 18:42:26 82° ESE 18:50:22 10° NNE
ATLAS 3B CENTAUR R/B 4.2 18:42:01 10° SW 19:01:17 55° SSE 19:02:15 54° SSE
Lacrosse 4 Rocket 4.0 19:01:49 10° WNW 19:03:48 18° W 19:03:48 18° W
Resurs 01 Rocket 4.1 19:21:05 19° NW 19:21:05 19° NW 19:22:34 10° NNW
Haruka 4.1 19:06:49 10° W 19:17:30 58° W 19:17:30 58° W
USA 238 DEB 4.1 19:13:25 10° NNW 19:19:55 67° WNW 19:19:55 67° WNW
USA 238 4.1 19:13:31 10° NNW 19:20:00 67° WNW 19:20:00 67° WNW
Cosmos 2360 Rocket 3.8 19:21:15 10° NNW 19:24:03 30° NNW 19:24:03 30° NNW
USA 215 4.0 19:32:56 48° WNW 19:32:56 48° WNW 19:37:36 10° NW
SL-16 R/B 4.0 19:27:30 10° NW 19:31:00 25° W 19:31:00 25° W
CENTAUR R/B 3.8 19:45:41 10° NW 19:52:44 51° W 19:52:44 51° W
Cosmos 2344 4.4 19:47:09 10° SW 19:54:24 42° NW 20:01:30 10° NNE
